weather.gov     
National Weather Service

Regional Weather Roundup
NWS Homepage
This page is being discontinued on March 12, 2014.
The same data is available at this site. Please update your bookmarks.
Thank you, and we apologize for the inconvenience.
Please send an email to SR-SRH.Webmaster@noaa.gov with any concerns.


Current Version
Previous Version:    01  02  03  04  05  06  07  08  09  10  11  12  13  14  15  16  17  18  19  20  21  22  23  24  25  26  27  28  29  30  
   31  32  33  34  35  36  37  38  39  40  41  42  43  44  45  46  47  48  49  50  51  52  
[Printable]
373
ASUS44 KMEG 161310
RWRMEG
MEMPHIS CWA HOURLY WEATHER ROUNDUP
NATIONAL WEATHER SERVICE MEMPHIS TN
800 AM CDT WED APR 16 2014

...WEST TENNESSEE...

CITY           SKY/WX    TMP DP  RH WIND       PRES   REMARKS
MEMPHIS INTL   MOSUNNY   41  23  48 SE13      30.29R
NWS MEMPHIS      N/A     39 N/A N/A MISG        N/A
JACKSON        SUNNY     36  27  69 E6        30.31R WCI  31
LEXINGTON      SUNNY     34  27  75 E5        30.29R WCI  30
DYERSBURG      SUNNY     37  19  48 E8        30.33R WCI  31
UNION CITY     SUNNY     36  27  69 E3        30.31R
PARIS          SUNNY     35  23  62 E8        30.31R WCI  28


...EASTERN ARKANSAS...

CITY           SKY/WX    TMP DP  RH WIND       PRES   REMARKS
JONESBORO      SUNNY     41  29  62 SE9       30.29R
WEST MEMPHIS   SUNNY     41  28  60 SE8       30.29R
BATESVILLE     SUNNY     39  30  70 SE6       30.26R WCI  35
NEWPORT        SUNNY     41  30  65 SE12G20   30.29R
BLYTHEVILLE    SUNNY     40  25  55 SE12      30.32R WCI  33
NW BLYTHEVILLE MOSUNNY   41  27  56 SE8       30.31
SEARCY         SUNNY     40  34  79 VRB5      30.29R
STUTTGART      SUNNY     43  30  61 SE9       30.27R
PINE BLUFF     SUNNY     41  33  73 SE7       30.27R
MONTICELLO     SUNNY     40  31  70 E3        30.26R


...NORTH MISSISSIPPI...

CITY           SKY/WX    TMP DP  RH WIND       PRES   REMARKS
TUPELO         SUNNY     38  29  70 E3        30.29R
OXFORD         MIX PCPN  37  25  60 E5        30.30S WCI  34
OLIVE BRANCH   MOSUNNY   36  28  75 E8        30.30R WCI  29
TUNICA         SUNNY     37  30  75 E9        30.31R WCI  31
CLARKSDALE       N/A     39  32  75 E8        30.30R WCI  34
CORINTH        SUNNY     37  28  70 CALM      30.30R
GRENADA        SUNNY     41  30  65 E15       30.30R
GREENWOOD      SUNNY     39  28  64 E7        30.28R WCI  34
COLUMBUS       MIX PCPN  39  27  63 E9        30.29R WCI  33
STARKVILLE     FAIR      37  30  75 E9        30.28R WCI  31
GOLDEN TRIANGL SUNNY     37  25  60 E9        30.30R WCI  31


...SOUTHEAST MISSOURI...

CITY           SKY/WX    TMP DP  RH WIND       PRES   REMARKS
WEST PLAINS    MOSUNNY   38  27  64 S13       30.21R WCI  30
POPLAR BLUFF   SUNNY     40  29  64 MISG      30.29R
CAPE GIRARDEAU SUNNY     39  29  67 SE7       30.31R WCI  34


...NORTHWEST ALABAMA...

CITY           SKY/WX    TMP DP  RH WIND       PRES   REMARKS
MUSCLE SHOALS  SUNNY     40  25  55 E8        30.31R WCI  34


...MIDDLE TENNESSEE...

CITY           SKY/WX    TMP DP  RH WIND       PRES   REMARKS
NASHVILLE      MOSUNNY   37  24  59 E12G20    30.33R WCI  29
CLARKSVILLE    SUNNY     36  25  64 E12       30.33R WCI  28
DICKSON        SUNNY     34  21  60 E7        30.30R WCI  28
COLUMBIA       SUNNY     36  28  75 NE3       30.29R
LEWISBURG      SUNNY     33  26  76 NE3       30.30R


...WESTERN KENTUCKY...

CITY           SKY/WX    TMP DP  RH WIND       PRES   REMARKS
PADUCAH        SUNNY     39  28  64 SE8       30.32R WCI  33
FORT CAMPBELL  SUNNY     37  25  60 E12       30.33R WCI  30


...CENTRAL ARKANSAS...

CITY           SKY/WX    TMP DP  RH WIND       PRES   REMARKS
LITTLE ROCK    MOSUNNY   43  32  65 SE9       30.27R


SKY/WX REPORTED AS FAIR MEANS FEW OR NO CLOUDS BELOW
12 THOUSAND FEET.





U.S. Dept. of Commerce
NOAA National Weather Service
1325 East West Highway
Silver Spring, MD 20910
E-mail: w-nws.webmaster@noaa.gov
Page last modified: May 16, 2007
NATIONAL WEATHER SERVICE: for Safety, for Work, for Fun - FOR LIFE